Simultaneous Nadir Overpasses (SNOs) Predictions

Prediction of SNOs between METOP-B and TERRA Satellite Orbit:

Table of predicted SNOs for the next 14.0 days since TLE Epoch: 8/4/2017
Index Date (METOP-B) Time (METOP-B) Lat,Lon (METOP-B) SZA (METOP-B ) Date (TERRA) Time (TERRA) Lat,Lon (TERRA) SZA (TERRA ) Distance(km) Time Diff (sec)
1 08/05/2017 01:55:48 -81.34, 18.74 112.86 08/05/2017 01:56:52 -81.33, 18.58 112.85 2.87 64
2 08/05/2017 02:46:28 81.34,-173.62 67.19 08/05/2017 02:46:18 81.34,-173.71 67.17 1.64 10
3 08/07/2017 21:30:07 -81.34, 85.26 112.07 08/07/2017 21:31:07 -81.34, 85.19 112.04 1.22 60
4 08/07/2017 22:20:47 81.34,-107.15 67.98 08/07/2017 22:20:33 81.34,-107.12 67.98 0.60 14
5 08/10/2017 17:04:28 -81.34, 151.37 111.28 08/10/2017 17:05:24 -81.33, 151.42 111.25 1.03 56
6 08/10/2017 17:55:07 81.34, -40.69 68.81 08/10/2017 17:54:49 81.35, -40.52 68.82 3.08 18
7 08/13/2017 12:38:48 -81.34,-142.14 110.42 08/13/2017 12:39:40 -81.34,-141.97 110.37 2.92 52
8 08/13/2017 13:29:27 81.34, 25.75 69.67 08/13/2017 13:29:06 81.34, 25.70 69.65 0.90 21
9 08/16/2017 08:13:07 -81.34, -75.67 109.52 08/16/2017 08:13:56 -81.33, -75.73 109.51 1.43 49




NCC Satellite Simultaneous Nadir Overpasses (SNOs) Prediction Service
